This demonstration page uses our WeatherBlox Daily Observations layout. Learn more.

Left ArrowRight Arrow

Hourly Observations for May 16, 2017

Temp ( °F °C ) Dew Point ( °F °C ) Humidity (%) Winds ( mph kmh ) Pressure ( in mb ) Visibility ( mi km ) Precip ( " mm )
11:35 am 11:35 Sunny 73 23 61 16 65 65 SSW 8 13 29.50 999 10 16 0.00 0.00
11:55 am 11:55 Sunny 73 23 61 16 65 65 WSW 8 13 29.50 999 10 16 0.00 0.00
12:15 pm 12:15 Sunny 75 24 59 15 57 57 W 6 9 29.47 998 10 16 0.00 0.00
12:35 pm 12:35 Mostly Sunny 75 24 61 16 61 61 WNW 3 6 29.47 998 10 16 0.00 0.00
12:55 pm 12:55 Sunny 77 25 61 16 57 57 W 6 9 29.47 998 10 16 0.00 0.00
1:15 pm 13:15 Sunny 77 25 63 17 61 61 W 8 13 29.47 998 10 16 0.00 0.00
1:35 pm 13:35 Mostly Sunny 75 24 61 16 61 61 Calm 29.50 999 10 16 0.00 0.00
1:55 pm 13:55 Mostly Sunny 75 24 61 16 61 61 WNW 7 11 29.50 999 10 16 0.00 0.00
2:15 pm 14:15 Sunny 75 24 61 16 61 61 NW 8 13 29.47 998 10 16 0.00 0.00
2:35 pm 14:35 Sunny 77 25 61 16 57 57 NW 7 11 29.47 998 10 16 0.00 0.00
2:55 pm 14:55 Sunny 77 25 61 16 57 57 Calm 29.47 998 10 16 0.00 0.00
3:15 pm 15:15 Sunny 79 26 61 16 54 54 N 6 9 29.47 998 10 16 0.00 0.00
3:35 pm 15:35 Sunny 79 26 61 16 54 54 N 3 6 29.47 998 10 16 0.00 0.00
3:55 pm 15:55 Sunny 79 26 63 17 58 58 NE 8 13 29.44 997 10 16 0.00 0.00
4:15 pm 16:15 Sunny 81 27 63 17 54 54 NE 8 13 29.41 996 10 16 0.00 0.00
4:35 pm 16:35 Sunny 81 27 61 16 51 51 NE 9 15 29.38 995 10 16 0.00 0.00
4:55 pm 16:55 Sunny 81 27 63 17 54 54 ENE 13 20 29.38 995 10 16 0.00 0.00
5:15 pm 17:15 Sunny 79 26 61 16 54 54 E 10 17 29.41 996 10 16 0.00 0.00
5:35 pm 17:35 Sunny 77 25 61 16 57 57 NE 14 22 29.38 995 10 16 0.00 0.00
5:55 pm 17:55 Sunny 75 24 61 16 61 61 ENE 13 20 29.38 995 10 16 0.00 0.00
6:15 pm 18:15 Mostly Sunny 73 23 63 17 69 69 NNE 13 20 29.38 995 10 16 0.00 0.00
6:35 pm 18:35 Mostly Cloudy 73 23 63 17 69 69 NE 6 9 29.38 995 9 14 0.00 0.00
6:55 pm 18:55 Cloudy with Thunderstorms 72 22 64 18 78 78 Calm 29.44 997 8 13 0.00 0.00
7:15 pm 19:15 Cloudy with Thunderstorms 63 17 55 13 77 77 SW 17 28 29.56 1001 3 4 0.32 8.13
7:35 pm 19:35 Cloudy with Thunderstorms 61 16 57 14 88 88 WNW 7 11 29.50 999 10 16 0.44 11.18
7:55 pm 19:55 Cloudy 61 16 55 13 83 83 NE 16 26 29.44 997 10 16 0.47 11.94
8:15 pm 20:15 Mostly Cloudy 61 16 55 13 83 83 NNE 8 13 29.44 997 10 16 0.00 0.00
8:35 pm 20:35 Cloudy 61 16 55 13 83 83 N 9 15 29.44 997 10 16 0.00 0.00
8:55 pm 20:55 Partly Cloudy 61 16 55 13 83 83 NE 12 19 29.44 997 10 16 0.00 0.00
9:15 pm 21:15 Mostly Clear 61 16 55 13 83 83 E 13 20 29.44 997 10 16 0.00 0.00
9:35 pm 21:35 Mostly Cloudy 63 17 55 13 77 77 E 13 20 29.44 997 10 16 0.00 0.00
9:55 pm 21:55 Cloudy 63 17 55 13 77 77 E 14 22 29.44 997 10 16 0.00 0.00
10:35 pm 22:35 Cloudy 61 16 55 13 83 83 NNE 8 13 29.47 998 10 16 0.04 1.02
10:55 pm 22:55 Cloudy 61 16 55 13 83 83 N 9 15 29.47 998 10 16 0.04 1.02
11:15 pm 23:15 Cloudy 61 16 55 13 83 83 N 9 15 29.44 997 10 16 0.00 0.00
11:35 pm 23:35 Cloudy with Thunderstorms 61 16 55 13 83 83 NNE 9 15 29.44 997 10 16 0.02 0.51
11:55 pm 23:55 Mostly Cloudy 61 16 55 13 83 83 WNW 14 22 29.50 999 5 8 0.44 11.18

Powered by AerisWeather